Change the Weather History Date:

Friday, November 1, 2013

  Actual Average Record
Temperature  
Mean Temperature 37 °F -  
Max Temperature 48 °F 45 °F 64 °F (1958)
Min Temperature 26 °F 26 °F 0 °F (1984)
Degree Days  
Heating Degree Days 28    
Moisture  
Dew Point 27 °F    
Average Humidity 77    
Maximum Humidity 87    
Minimum Humidity 58    
Precipitation  
Precipitation 0.00 in - - ()
Sea Level Pressure  
Sea Level Pressure 29.64 in    
Wind  
Wind Speed 7 mph (WNW)    
Max Wind Speed 18 mph    
Max Gust Speed 29 mph    
Visibility 8 miles    
Events      
Averages and records for this station are not official NWS values.
T = Trace of Precipitation, MM = Missing Value Source: NWS Daily Summary

Daily Weather History Graph

Daily Weather History Graph

Search for Another Location

Airport or City:

Trip Planner

Search our weather history database for the weather conditions in past years. The results will help you decide how hot, cold, wet, or windy it might be!

Date:

Astronomy

Nov. 01, 2013 Rise Set
Actual Time 8:10 AM CDT 6:01 PM CDT
Civil Twilight 7:37 AM CDT 6:34 PM CDT
Nautical Twilight 6:59 AM CDT 7:12 PM CDT
Astronomical Twilight 6:22 AM CDT 7:48 PM CDT
Moon 5:54 AM CDT (11/1) 5:02 PM CDT (11/1)
Length of Visible Light 10h 57m
Length of Day
9h 51m
Waning Crescent, 4% of the Moon is Illuminated
Nov 1
Waning Crescent
Nov 3
New
Nov 9
First Quarter
Nov 17
Full
Nov 25
Last Quarter

Hourly Weather History & Observations

Time (CDT) Temp. Windchill Dew Point Humidity Pressure Visibility Wind Dir Wind Speed Gust Speed Precip Events Conditions
12:14 AM 30.2 °F 24.3 °F 26.6 °F 86% 29.44 in 7.0 mi West 5.8 mph - N/A   Clear
12:34 AM 30.2 °F 24.3 °F 26.6 °F 86% 29.43 in 7.0 mi West 5.8 mph - N/A   Clear
12:55 AM 30.2 °F 22.6 °F 26.6 °F 86% 29.44 in 5.0 mi West 8.1 mph - N/A   Clear
1:14 AM 30.2 °F 22.6 °F 24.8 °F 80% 29.44 in 5.0 mi West 8.1 mph - N/A   Haze
1:34 AM 28.4 °F 21.2 °F 24.8 °F 86% 29.45 in 5.0 mi West 6.9 mph - N/A   Clear
1:54 AM 28.4 °F 22.2 °F 24.8 °F 86% 29.45 in 5.0 mi West 5.8 mph - N/A   Haze
2:14 AM 28.4 °F 21.2 °F 24.8 °F 86% 29.46 in 5.0 mi West 6.9 mph - N/A   Clear
2:34 AM 28.4 °F 21.2 °F 24.8 °F 86% 29.46 in 5.0 mi WNW 6.9 mph - N/A   Clear
2:54 AM 28.4 °F 23.3 °F 23.0 °F 80% 29.46 in 5.0 mi WNW 4.6 mph - N/A   Haze
3:14 AM 28.4 °F 22.2 °F 23.0 °F 80% 29.47 in 5.0 mi West 5.8 mph - N/A   Haze
3:34 AM 28.4 °F 23.3 °F 23.0 °F 80% 29.47 in 5.0 mi WNW 4.6 mph - N/A   Haze
3:54 AM 26.6 °F 21.2 °F 23.0 °F 86% 29.47 in 5.0 mi WNW 4.6 mph - N/A   Clear
4:14 AM 26.6 °F 21.2 °F 23.0 °F 86% 29.47 in 5.0 mi WNW 4.6 mph - N/A   Clear
4:34 AM 26.6 °F 20.0 °F 23.0 °F 86% 29.48 in 4.0 mi West 5.8 mph - N/A   Clear
4:54 AM 26.6 °F 21.2 °F 21.2 °F 80% 29.48 in 4.0 mi West 4.6 mph - N/A   Haze
5:14 AM 26.6 °F 21.2 °F 21.2 °F 80% 29.49 in 4.0 mi West 4.6 mph - N/A   Haze
5:34 AM 26.6 °F 21.2 °F 23.0 °F 86% 29.49 in 4.0 mi WNW 4.6 mph - N/A   Clear
5:54 AM 26.6 °F 21.2 °F 21.2 °F 80% 29.50 in 4.0 mi WNW 4.6 mph - N/A   Clear
6:14 AM 26.6 °F 21.2 °F 21.2 °F 80% 29.51 in 4.0 mi WNW 4.6 mph - N/A   Clear
6:34 AM 26.6 °F - 21.2 °F 80% 29.51 in 4.0 mi Calm Calm - N/A   Clear
6:54 AM 26.6 °F 22.6 °F 21.2 °F 80% 29.52 in 4.0 mi West 3.5 mph - N/A   Haze
7:14 AM 28.4 °F 24.6 °F 23.0 °F 80% 29.53 in 5.0 mi WSW 3.5 mph - N/A   Haze
7:34 AM 28.4 °F 23.3 °F 24.8 °F 86% 29.53 in 5.0 mi West 4.6 mph - N/A   Overcast
7:54 AM 28.4 °F - 24.8 °F 86% 29.53 in 5.0 mi Calm Calm - N/A   Overcast
8:14 AM 28.4 °F - 23.0 °F 80% 29.54 in 5.0 mi Calm Calm - N/A   Haze
8:34 AM 26.6 °F 22.6 °F 21.2 °F 80% 29.55 in 4.0 mi WSW 3.5 mph - N/A   Haze
8:54 AM 28.4 °F - 23.0 °F 80% 29.56 in 4.0 mi Calm Calm - N/A   Haze
9:14 AM 28.4 °F 22.2 °F 24.8 °F 86% 29.57 in 5.0 mi West 5.8 mph - N/A   Haze
9:34 AM 30.2 °F 21.9 °F 26.6 °F 86% 29.58 in 5.0 mi West 9.2 mph - N/A   Mostly Cloudy
9:54 AM 30.2 °F 23.4 °F 26.6 °F 86% 29.58 in 5.0 mi West 6.9 mph - N/A   Mostly Cloudy
10:14 AM 33.8 °F 27.7 °F 28.4 °F 81% 29.59 in 5.0 mi West 6.9 mph - N/A   Haze
10:34 AM 33.8 °F 27.7 °F 30.2 °F 87% 29.59 in 7.0 mi West 6.9 mph - N/A   Mostly Cloudy
10:54 AM 35.6 °F 29.9 °F 30.2 °F 81% 29.60 in 7.0 mi West 6.9 mph - N/A   Scattered Clouds
11:14 AM 37.4 °F 31.4 °F 33.8 °F 87% 29.60 in 10.0 mi West 8.1 mph - N/A   Scattered Clouds
11:34 AM 39.2 °F 33.6 °F 35.6 °F 87% 29.61 in 10.0 mi WNW 8.1 mph - N/A   Clear
11:54 AM 41.0 °F 35.2 °F 35.6 °F 81% 29.61 in 10.0 mi WNW 9.2 mph - N/A   Mostly Cloudy
12:14 PM 42.8 °F 37.5 °F 35.6 °F 76% 29.62 in 10.0 mi WNW 9.2 mph - N/A   Scattered Clouds
12:34 PM 44.6 °F 40.2 °F 35.6 °F 71% 29.62 in 10.0 mi WNW 8.1 mph - N/A   Clear
12:54 PM 44.6 °F 39.7 °F 35.6 °F 71% 29.62 in 10.0 mi WNW 9.2 mph - N/A   Clear
1:14 PM 46.4 °F 41.5 °F 35.6 °F 66% 29.62 in 10.0 mi WNW 10.4 mph - N/A   Clear
1:34 PM 46.4 °F 41.5 °F 35.6 °F 66% 29.63 in 10.0 mi WNW 10.4 mph - N/A   Scattered Clouds
1:54 PM 46.4 °F 41.5 °F 33.8 °F 62% 29.63 in 10.0 mi WNW 10.4 mph 16.1 mph N/A   Clear
2:14 PM 46.4 °F 39.8 °F 33.8 °F 62% 29.64 in 10.0 mi NNW 16.1 mph 23.0 mph N/A   Clear
2:34 PM 48.2 °F - 33.8 °F 58% 29.65 in 10.0 mi NW 16.1 mph - N/A   Clear
2:54 PM 48.2 °F - 33.8 °F 58% 29.65 in 10.0 mi WNW 12.7 mph 20.7 mph N/A   Mostly Cloudy
3:14 PM 48.2 °F - 33.8 °F 58% 29.67 in 10.0 mi NNW 18.4 mph 21.9 mph N/A   Mostly Cloudy
3:34 PM 44.6 °F 36.9 °F 32.0 °F 61% 29.69 in 10.0 mi NNW 18.4 mph - N/A   Scattered Clouds
3:54 PM 42.8 °F 34.8 °F 32.0 °F 66% 29.71 in 10.0 mi NNW 17.3 mph - N/A   Scattered Clouds
4:14 PM 39.2 °F 31.2 °F 30.2 °F 70% 29.72 in 10.0 mi NNW 13.8 mph - N/A   Scattered Clouds
4:34 PM 41.0 °F 33.9 °F 30.2 °F 65% 29.73 in 10.0 mi North 12.7 mph 19.6 mph N/A   Mostly Cloudy
4:54 PM 41.0 °F 35.8 °F 30.2 °F 65% 29.75 in 10.0 mi NNW 8.1 mph 12.7 mph N/A   Overcast
5:14 PM 41.0 °F 35.8 °F 30.2 °F 65% 29.75 in 10.0 mi NNW 8.1 mph - N/A   Overcast
5:34 PM 41.0 °F 35.8 °F 30.2 °F 65% 29.76 in 10.0 mi NW 8.1 mph - N/A   Overcast
5:54 PM 41.0 °F 32.5 °F 30.2 °F 65% 29.77 in 10.0 mi NW 17.3 mph - N/A   Overcast
6:14 PM 39.2 °F 30.8 °F 30.2 °F 70% 29.79 in 10.0 mi NW 15.0 mph - N/A   Mostly Cloudy
6:35 PM 39.2 °F 29.8 °F 30.2 °F 70% 29.79 in 10.0 mi NNW 18.4 mph 28.8 mph N/A   Mostly Cloudy
6:54 PM 39.2 °F 30.5 °F 30.2 °F 70% 29.80 in 10.0 mi North 16.1 mph 23.0 mph N/A   Mostly Cloudy
7:14 PM 37.4 °F 30.3 °F 30.2 °F 75% 29.81 in 10.0 mi NNW 10.4 mph - N/A   Scattered Clouds
7:34 PM 37.4 °F 29.8 °F 28.4 °F 70% 29.82 in 10.0 mi NNW 11.5 mph - N/A   Clear
7:54 PM 37.4 °F 30.3 °F 28.4 °F 70% 29.82 in 10.0 mi North 10.4 mph - N/A   Clear
8:14 PM 35.6 °F 29.9 °F 28.4 °F 75% 29.83 in 10.0 mi NNW 6.9 mph - N/A   Clear
8:34 PM 32.0 °F 28.7 °F 26.6 °F 80% 29.84 in 10.0 mi NNW 3.5 mph - N/A   Clear
8:54 PM 32.0 °F 26.4 °F 26.6 °F 80% 29.84 in 10.0 mi North 5.8 mph - N/A   Clear
9:14 PM 32.0 °F 28.7 °F 26.6 °F 80% 29.85 in 10.0 mi NNW 3.5 mph - N/A   Clear
9:34 PM 32.0 °F 28.7 °F 26.6 °F 80% 29.85 in 10.0 mi NNW 3.5 mph - N/A   Clear
9:54 PM 30.2 °F - 24.8 °F 80% 29.86 in 10.0 mi Calm Calm - N/A   Clear
10:14 PM 28.4 °F 23.3 °F 24.8 °F 86% 29.87 in 10.0 mi NW 4.6 mph - N/A   Clear
10:34 PM 28.4 °F 24.6 °F 24.8 °F 86% 29.87 in 10.0 mi NW 3.5 mph - N/A   Clear
10:54 PM 28.4 °F - 24.8 °F 86% 29.88 in 10.0 mi Calm Calm - N/A   Clear
11:14 PM 28.4 °F - 24.8 °F 86% 29.88 in 10.0 mi Calm Calm - N/A   Clear
11:34 PM 26.6 °F 22.6 °F 23.0 °F 86% 29.88 in 10.0 mi NW 3.5 mph - N/A   Clear
11:54 PM 26.6 °F - 21.2 °F 80% 29.88 in 10.0 mi Calm Calm - N/A   Clear